FW0610 Weather Reports


time (UTC)temp
F
wind
direction
speed
knots
gust
knots
rain 1hr
in
rain 24hr
in
rain mn
in
humidity
%
barometer
mb
20260504081542 30 0 0.0 0.0 0.00 0.01 0.00 89 1006.7
20260504044536 25 0 0.0 0.0 0.00 0.01 0.00 89 1007.1
20260504043042 26 0 0.0 0.0 0.00 0.01 0.00 89 1007.1
20260504041541 26 0 0.0 0.0 0.00 0.01 0.00 89 1007.2
20260504040042 26 0 0.0 0.0 0.00 0.01 0.00 89 1007.1
20260504034547 26 0 0.0 0.0 0.00 0.01 0.01 89 1007.2
20260504033036 26 0 0.0 0.0 0.00 0.01 0.01 89 1007.1
20260504031602 26 0 0.0 0.0 0.00 0.01 0.01 88 1007.0
20260504030043 27 0 0.0 0.0 0.00 0.01 0.01 88 1007.0
20260504024542 27 0 0.0 0.0 0.00 0.01 0.01 87 1007.0
20260504023039 28 0 0.0 0.0 0.00 0.01 0.01 87 1007.1
20260504021538 28 0 0.0 0.0 0.00 0.01 0.01 86 1007.2
20260504020039 29 0 0.0 0.0 0.00 0.01 0.01 85 1007.2
20260504014536 30 0 0.0 0.0 0.00 0.01 0.01 84 1007.1
20260504013042 31 0 0.0 0.0 0.00 0.01 0.01 83 1007.1
20260504011539 32 0 0.0 0.0 0.00 0.01 0.01 81 1007.0
20260504010044 33 0 0.0 0.0 0.00 0.01 0.01 79 1006.9
20260504004538 35 0 0.0 0.0 0.00 0.01 0.01 77 1006.8
20260504003042 36 0 0.0 0.0 0.00 0.01 0.01 74 1006.8
20260504001601 39 0 0.0 0.0 0.00 0.01 0.01 70 1006.8
20260504000041 41 0 0.0 0.9 0.00 0.01 0.01 64 1006.6
20260503234540 43 0 0.0 0.0 0.00 0.01 0.01 58 1006.5
20260503233038 44 0 0.0 7.8 0.00 0.01 0.01 53 1006.5
20260503231546 45 0 0.0 3.5 0.00 0.01 0.01 55 1006.6
20260503230036 44 0 0.0 6.1 0.00 0.01 0.01 53 1006.5
20260503224548 43 285 2.6 8.7 0.00 0.01 0.01 54 1006.6
20260503223043 44 248 1.7 8.7 0.00 0.01 0.01 54 1006.6
20260503221540 44 302 1.7 9.6 0.00 0.01 0.01 54 1006.5
20260503220040 43 304 1.7 7.8 0.00 0.01 0.01 55 1006.5
20260503214543 43 0 2.6 10.4 0.00 0.01 0.01 56 1006.6
20260503213104 43 263 2.6 11.3 0.00 0.01 0.01 56 1006.6
20260503211602 44 279 3.5 10.4 0.00 0.01 0.01 54 1006.5
20260503210039 44 346 3.5 8.7 0.00 0.01 0.01 54 1006.3
20260503204557 44 284 1.7 13.0 0.00 0.01 0.01 55 1006.2
20260503203040 44 273 0.9 6.1 0.00 0.01 0.01 59 1006.1
20260503201540 43 236 3.5 11.3 0.00 0.01 0.01 60 1006.2
20260503200043 44 277 4.3 11.3 0.00 0.01 0.01 56 1006.3
20260503194541 44 294 1.7 11.3 0.00 0.01 0.01 56 1006.4
20260503193040 44 286 3.5 9.6 0.00 0.01 0.01 53 1006.5
20260503191612 44 38 2.6 14.8 0.00 0.01 0.01 53 1006.6
20260503190040 45 321 4.3 10.4 0.00 0.01 0.01 48 1006.4
20260503184537 44 303 5.2 14.8 0.00 0.02 0.01 53 1006.5
20260503183046 44 252 3.5 10.4 0.00 0.02 0.01 56 1006.5
20260503181542 42 252 3.5 10.4 0.00 0.02 0.01 55 1006.6
20260503180039 42 24 3.5 12.2 0.00 0.02 0.01 57 1006.8
20260503174551 43 227 3.5 13.0 0.00 0.02 0.01 59 1006.7
20260503173038 45 267 5.2 16.5 0.00 0.02 0.01 53 1006.5
20260503171550 45 55 1.7 12.2 0.00 0.02 0.01 52 1006.5